EDW24 MDPP-MKJS

Flight info

Callsign EDW24
Flight time N/A
Altitude 40000
Route RETAK UM348 ALBBE DCT BODLO DCT DAVOL/N0466F410 DCT SAVEM UW6 SENLA OMAXI7
Aircraft A343/H-SDE2E3FGHIJ4J5M1RWXY/LB1D1

Departure

Time 2026-04-23 12:26
Airport Gregorio Luperon International Airport (MDPP)

Arrival

Time N/A
Airport Sangster International Airport (MKJS)
Time Latitude Longitude Altitude Speed Heading
2026-04-23 12:03 19.75611 -70.56485 39 ft 0 kts 163°
2026-04-23 12:19 19.75619 -70.56488 39 ft 4 kts 163°
2026-04-23 12:19 19.75645 -70.56496 38 ft 4 kts 163°
2026-04-23 12:20 19.75667 -70.56502 35 ft 4 kts 197°
2026-04-23 12:20 19.75685 -70.56486 35 ft 4 kts 244°
2026-04-23 12:20 19.75691 -70.56471 39 ft 3 kts 252°
2026-04-23 12:21 19.75691 -70.56472 39 ft 1 kts 252°
2026-04-23 12:22 19.75684 -70.56493 35 ft 7 kts 252°
2026-04-23 12:22 19.75661 -70.56570 39 ft 15 kts 252°
2026-04-23 12:22 19.75628 -70.56682 39 ft 17 kts 252°
2026-04-23 12:22 19.75586 -70.56821 39 ft 23 kts 252°
2026-04-23 12:23 19.75538 -70.56989 38 ft 24 kts 255°
2026-04-23 12:23 19.75590 -70.57110 38 ft 18 kts 316°
2026-04-23 12:23 19.75680 -70.57215 37 ft 21 kts 304°
2026-04-23 12:23 19.75681 -70.57359 37 ft 20 kts 254°
2026-04-23 12:24 19.75637 -70.57516 36 ft 24 kts 253°
2026-04-23 12:24 19.75583 -70.57699 38 ft 28 kts 252°
2026-04-23 12:24 19.75520 -70.57912 40 ft 33 kts 253°
2026-04-23 12:24 19.75453 -70.58151 41 ft 32 kts 254°
2026-04-23 12:25 19.75395 -70.58327 40 ft 15 kts 237°
2026-04-23 12:25 19.75379 -70.58372 40 ft 1 kts 310°
2026-04-23 12:25 19.75385 -70.58372 40 ft 1 kts 345°
2026-04-23 12:25 19.75391 -70.58365 40 ft 3 kts 38°
2026-04-23 12:26 19.75429 -70.58241 40 ft 45 kts 72°
2026-04-23 12:26 19.75588 -70.57690 38 ft 108 kts 73°
2026-04-23 12:26 19.75859 -70.56745 42 ft 157 kts 73°
2026-04-23 12:26 19.76200 -70.55634 653 ft 155 kts 71°
2026-04-23 12:27 19.76532 -70.54551 1299 ft 162 kts 75°
2026-04-23 12:27 19.76883 -70.53314 1629 ft 190 kts 73°
2026-04-23 12:27 19.77662 -70.52019 1893 ft 230 kts 39°
2026-04-23 12:27 19.79184 -70.51296 2618 ft 249 kts 19°
2026-04-23 12:28 19.80878 -70.50798 3617 ft 255 kts 17°
2026-04-23 12:28 19.82614 -70.50295 4561 ft 262 kts 17°
2026-04-23 12:28 19.84395 -70.49763 5359 ft 270 kts 17°
2026-04-23 12:28 19.86212 -70.49206 5834 ft 273 kts 17°
2026-04-23 12:29 19.88051 -70.48635 6300 ft 278 kts 17°
2026-04-23 12:29 19.89926 -70.48047 7156 ft 282 kts 17°
2026-04-23 12:29 19.91823 -70.47505 8152 ft 284 kts 10°
2026-04-23 12:29 19.93796 -70.47284 9148 ft 286 kts
2026-04-23 12:30 19.95796 -70.47219 10054 ft 290 kts 358°
2026-04-23 12:30 19.97823 -70.47563 10602 ft 306 kts 341°
2026-04-23 12:30 19.99742 -70.48695 10893 ft 328 kts 319°
2026-04-23 12:30 20.01192 -70.50642 11197 ft 347 kts 295°
2026-04-23 12:31 20.01814 -70.53143 11726 ft 357 kts 272°
2026-04-23 12:31 20.01462 -70.55763 12382 ft 362 kts 252°
2026-04-23 12:31 20.00849 -70.58346 13040 ft 368 kts 263°
2026-04-23 12:31 20.00763 -70.61075 13829 ft 371 kts 270°
2026-04-23 12:32 20.00825 -70.63821 14528 ft 373 kts 271°
2026-04-23 12:32 20.00908 -70.66579 15338 ft 372 kts 272°
2026-04-23 12:32 20.00991 -70.69339 16044 ft 375 kts 272°
2026-04-23 12:32 20.01073 -70.72112 16801 ft 377 kts 272°
2026-04-23 12:33 20.01155 -70.74927 17405 ft 383 kts 272°
2026-04-23 12:33 20.01236 -70.77752 18205 ft 383 kts 272°
2026-04-23 12:33 20.01317 -70.80598 18818 ft 386 kts 272°
2026-04-23 12:33 20.01398 -70.83463 19390 ft 390 kts 272°
2026-04-23 12:34 20.01479 -70.86358 19933 ft 394 kts 272°
2026-04-23 12:34 20.01504 -70.87256 20113 ft 395 kts 272°
2026-04-23 12:34 20.01530 -70.88178 20300 ft 395 kts 272°
2026-04-23 12:34 20.01611 -70.91107 20918 ft 397 kts 272°
2026-04-23 12:35 20.01692 -70.94045 21520 ft 399 kts 272°
2026-04-23 12:35 20.01746 -70.96002 21916 ft 400 kts 272°
2026-04-23 12:35 20.01800 -70.97989 22310 ft 402 kts 272°
2026-04-23 12:35 20.01881 -71.00965 22888 ft 404 kts 272°
2026-04-23 12:36 20.01962 -71.03958 23458 ft 407 kts 272°
2026-04-23 12:36 20.02042 -71.06937 23933 ft 409 kts 272°
2026-04-23 12:36 20.02123 -71.09972 24398 ft 411 kts 272°
2026-04-23 12:36 20.02297 -71.13013 24851 ft 413 kts 276°
2026-04-23 12:37 20.02836 -71.16020 25309 ft 416 kts 284°
2026-04-23 12:37 20.03696 -71.18977 25762 ft 418 kts 287°
2026-04-23 12:37 20.04628 -71.21913 26184 ft 420 kts 287°
2026-04-23 12:37 20.05570 -71.24864 26621 ft 423 kts 287°
2026-04-23 12:38 20.06515 -71.27836 27040 ft 425 kts 287°
2026-04-23 12:38 20.07460 -71.30819 27450 ft 427 kts 287°
2026-04-23 12:38 20.08408 -71.33819 27856 ft 429 kts 287°
2026-04-23 12:38 20.09360 -71.36837 28246 ft 431 kts 286°
2026-04-23 12:39 20.10315 -71.39869 28625 ft 433 kts 286°
2026-04-23 12:39 20.11273 -71.42914 29018 ft 435 kts 286°
2026-04-23 12:39 20.12235 -71.45974 29387 ft 437 kts 286°
2026-04-23 12:39 20.13190 -71.49014 29735 ft 439 kts 286°
2026-04-23 12:40 20.14161 -71.52107 30148 ft 440 kts 285°
2026-04-23 12:40 20.15126 -71.55184 30675 ft 436 kts 285°
2026-04-23 12:40 20.16087 -71.58246 31024 ft 436 kts 285°
2026-04-23 12:40 20.17047 -71.61313 31335 ft 437 kts 285°
2026-04-23 12:41 20.18009 -71.64383 31749 ft 436 kts 284°
2026-04-23 12:41 20.18967 -71.67439 32195 ft 433 kts 284°
2026-04-23 12:41 20.20041 -71.70438 32624 ft 433 kts 288°
2026-04-23 12:41 20.21218 -71.73377 33059 ft 432 kts 289°
2026-04-23 12:42 20.22435 -71.76296 33483 ft 430 kts 289°
2026-04-23 12:42 20.23665 -71.79195 33904 ft 428 kts 289°
2026-04-23 12:42 20.24892 -71.82077 34263 ft 426 kts 289°
2026-04-23 12:42 20.26094 -71.84913 34560 ft 425 kts 289°
2026-04-23 12:43 20.27303 -71.87785 34838 ft 425 kts 288°
2026-04-23 12:43 20.28467 -71.90669 35118 ft 423 kts 287°
2026-04-23 12:43 20.29590 -71.93558 35441 ft 421 kts 287°
2026-04-23 12:43 20.30696 -71.96447 35749 ft 420 kts 287°
2026-04-23 12:44 20.31798 -71.99334 36026 ft 419 kts 287°
2026-04-23 12:44 20.32898 -72.02204 36314 ft 419 kts 287°
2026-04-23 12:44 20.34004 -72.05076 36568 ft 418 kts 287°
2026-04-23 12:44 20.35110 -72.07939 36836 ft 418 kts 287°
2026-04-23 12:45 20.36217 -72.10796 37111 ft 417 kts 287°
2026-04-23 12:45 20.37324 -72.13651 37386 ft 416 kts 287°
2026-04-23 12:45 20.38430 -72.16502 37640 ft 415 kts 287°
2026-04-23 12:45 20.39532 -72.19347 37916 ft 415 kts 287°
2026-04-23 12:46 20.40530 -72.22174 38164 ft 411 kts 282°
2026-04-23 12:46 20.41227 -72.25110 38422 ft 405 kts 276°
2026-04-23 12:46 20.41552 -72.28079 38673 ft 401 kts 269°
2026-04-23 12:46 20.41627 -72.31042 38886 ft 399 kts 268°